Hourly Weather Rudashi

Today, 18 April, Sunday

Time Temperature Precipitation Wind Pressure Humidity
00:00 +7°C° 0.2 mm 2 mps 748 mmHg 82%
01:00 +7°C° 0.2 mm 2 mps 748 mmHg 86%
02:00 +7°C° 0.2 mm 2 mps 748 mmHg 90%
03:00 +7°C° 0 mm 2 mps 748 mmHg 91%
04:00 +7°C° 0 mm 2 mps 748 mmHg 92%
05:00 +7°C° 0 mm 2 mps 748 mmHg 93%
06:00 +8°C° 0 mm 3 mps 748 mmHg 90%
07:00 +9°C° 0 mm 3 mps 748 mmHg 87%
08:00 +10°C° 0 mm 4 mps 748 mmHg 85%
09:00 +11°C° 0 mm 4 mps 748 mmHg 78%
10:00 +13°C° 0 mm 4 mps 748 mmHg 72%
11:00 +14°C° 0 mm 4 mps 748 mmHg 65%
12:00 +14°C° 0 mm 4 mps 748 mmHg 63%
13:00 +15°C° 0 mm 4 mps 748 mmHg 60%
14:00 +15°C° 0 mm 4 mps 748 mmHg 58%
15:00 +15°C° 0.1 mm 4 mps 748 mmHg 60%
16:00 +14°C° 0.1 mm 4 mps 748 mmHg 62%
17:00 +14°C° 0.1 mm 4 mps 748 mmHg 63%
18:00 +12°C° 0 mm 4 mps 748 mmHg 69%
19:00 +11°C° 0 mm 4 mps 749 mmHg 74%
20:00 +8°C° 0 mm 4 mps 749 mmHg 79%
21:00 +8°C° 0 mm 3 mps 749 mmHg 82%
22:00 +7°C° 0 mm 3 mps 750 mmHg 86%
23:00 +5°C° 0 mm 3 mps 750 mmHg 89%

Tomorrow, 19 April, Monday

Time Temperature Precipitation Wind Pressure Humidity
00:00 +6°C° 0 mm 2 mps 750 mmHg 90%
01:00 +5°C° 0 mm 2 mps 750 mmHg 92%
02:00 +5°C° 0 mm 2 mps 750 mmHg 93%
03:00 +5°C° 0 mm 2 mps 750 mmHg 93%
04:00 +4°C° 0 mm 2 mps 750 mmHg 94%
05:00 +4°C° 0 mm 2 mps 750 mmHg 94%
06:00 +4°C° 0 mm 3 mps 750 mmHg 88%
07:00 +5°C° 0 mm 4 mps 750 mmHg 83%
08:00 +7°C° 0 mm 4 mps 750 mmHg 77%
09:00 +7°C° 0 mm 5 mps 750 mmHg 73%
10:00 +8°C° 0 mm 5 mps 750 mmHg 69%
11:00 +8°C° 0 mm 5 mps 749 mmHg 66%
12:00 +8°C° 0 mm 5 mps 749 mmHg 64%
13:00 +10°C° 0 mm 4 mps 749 mmHg 62%
14:00 +10°C° 0 mm 4 mps 749 mmHg 59%
15:00 +10°C° 0 mm 4 mps 749 mmHg 62%
16:00 +8°C° 0 mm 4 mps 749 mmHg 65%
17:00 +8°C° 0 mm 4 mps 749 mmHg 68%
18:00 +9°C° 0 mm 3 mps 749 mmHg 71%
19:00 +8°C° 0 mm 3 mps 749 mmHg 74%
20:00 +8°C° 0 mm 2 mps 749 mmHg 76%
21:00 +8°C° 0.1 mm 3 mps 748 mmHg 79%
22:00 +7°C° 0.1 mm 3 mps 748 mmHg 83%
23:00 +7°C° 0.1 mm 3 mps 748 mmHg 86%

Day after tomorrow, 20 April, Tuesday

Time Temperature Precipitation Wind Pressure Humidity
00:00 +7°C° 0 mm 3 mps 748 mmHg 88%
01:00 +5°C° 0 mm 3 mps 748 mmHg 90%
02:00 +5°C° 0 mm 3 mps 747 mmHg 92%
03:00 +5°C° 0 mm 3 mps 747 mmHg 92%
04:00 +5°C° 0 mm 3 mps 747 mmHg 92%
05:00 +5°C° 0 mm 3 mps 747 mmHg 92%
06:00 +5°C° 0.1 mm 3 mps 746 mmHg 89%
07:00 +5°C° 0.1 mm 3 mps 746 mmHg 87%
08:00 +5°C° 0.1 mm 3 mps 746 mmHg 84%
09:00 +7°C° 0.1 mm 3 mps 746 mmHg 81%
10:00 +7°C° 0.1 mm 3 mps 746 mmHg 77%
11:00 +8°C° 0.1 mm 3 mps 746 mmHg 74%
12:00 +8°C° 0.1 mm 3 mps 745 mmHg 71%
13:00 +8°C° 0.1 mm 3 mps 745 mmHg 69%
14:00 +9°C° 0.1 mm 3 mps 745 mmHg 66%
15:00 +7°C° 0 mm 4 mps 745 mmHg 66%
16:00 +7°C° 0 mm 4 mps 744 mmHg 67%
17:00 +7°C° 0 mm 4 mps 744 mmHg 67%
18:00 +7°C° 0 mm 3 mps 744 mmHg 70%
19:00 +5°C° 0 mm 3 mps 744 mmHg 73%
20:00 +6°C° 0 mm 2 mps 744 mmHg 76%
21:00 +5°C° 0 mm 2 mps 744 mmHg 77%
22:00 +5°C° 0 mm 2 mps 743 mmHg 78%
23:00 +5°C° 0 mm 2 mps 743 mmHg 79%

21 April, Wednesday

Time Temperature Precipitation Wind Pressure Humidity
00:00 +4°C° 0 mm 2 mps 743 mmHg 82%
01:00 +3°C° 0 mm 2 mps 742 mmHg 85%
02:00 +2°C° 0 mm 3 mps 742 mmHg 88%
03:00 +1°C° 0 mm 3 mps 742 mmHg 90%
04:00 +1°C° 0 mm 3 mps 742 mmHg 91%
05:00 +1°C° 0 mm 3 mps 742 mmHg 93%
06:00 +2°C° 0 mm 3 mps 742 mmHg 87%
07:00 +4°C° 0 mm 3 mps 742 mmHg 80%
08:00 +5°C° 0 mm 4 mps 741 mmHg 74%
09:00 +7°C° 0 mm 4 mps 741 mmHg 68%
10:00 +8°C° 0 mm 4 mps 741 mmHg 63%
11:00 +10°C° 0 mm 4 mps 741 mmHg 57%
12:00 +9°C° 0.1 mm 5 mps 741 mmHg 57%
13:00 +10°C° 0.1 mm 5 mps 741 mmHg 56%
14:00 +10°C° 0.1 mm 5 mps 741 mmHg 56%
15:00 +10°C° 0.1 mm 5 mps 741 mmHg 57%
16:00 +11°C° 0.1 mm 4 mps 741 mmHg 58%
17:00 +11°C° 0.1 mm 4 mps 741 mmHg 60%
18:00 +10°C° 0.1 mm 3 mps 741 mmHg 66%
19:00 +9°C° 0.1 mm 3 mps 742 mmHg 73%
20:00 +7°C° 0.1 mm 2 mps 742 mmHg 80%
21:00 +7°C° 0 mm 2 mps 742 mmHg 81%
22:00 +6°C° 0 mm 2 mps 742 mmHg 83%
23:00 +6°C° 0 mm 2 mps 743 mmHg 84%

22 April, Thursday

Time Temperature Precipitation Wind Pressure Humidity
00:00 +5°C° 0 mm 2 mps 743 mmHg 85%
01:00 +5°C° 0 mm 2 mps 743 mmHg 85%
02:00 +5°C° 0 mm 2 mps 743 mmHg 86%
03:00 +5°C° 0 mm 2 mps 743 mmHg 87%
04:00 +6°C° 0 mm 2 mps 743 mmHg 87%
05:00 +6°C° 0 mm 2 mps 743 mmHg 88%
06:00 +7°C° 0.1 mm 3 mps 744 mmHg 86%
07:00 +8°C° 0.1 mm 3 mps 744 mmHg 85%
08:00 +7°C° 0.1 mm 4 mps 744 mmHg 83%
09:00 +10°C° 0.1 mm 4 mps 745 mmHg 75%
10:00 +11°C° 0.1 mm 4 mps 745 mmHg 67%
11:00 +13°C° 0.1 mm 5 mps 745 mmHg 59%
12:00 +13°C° 0.2 mm 5 mps 746 mmHg 61%
13:00 +12°C° 0.2 mm 5 mps 746 mmHg 62%
14:00 +12°C° 0.2 mm 5 mps 746 mmHg 64%
15:00 +12°C° 0.1 mm 4 mps 746 mmHg 66%
16:00 +11°C° 0.1 mm 4 mps 747 mmHg 69%
17:00 +11°C° 0.1 mm 3 mps 747 mmHg 71%
18:00 +10°C° 0.1 mm 3 mps 747 mmHg 74%
19:00 +9°C° 0.1 mm 2 mps 748 mmHg 77%
20:00 +8°C° 0.1 mm 2 mps 748 mmHg 79%
21:00 +8°C° 0 mm 2 mps 748 mmHg 80%
22:00 +8°C° 0 mm 2 mps 748 mmHg 81%
23:00 +7°C° 0 mm 2 mps 748 mmHg 82%

23 April, Friday

Time Temperature Precipitation Wind Pressure Humidity
00:00 +7°C° 1.5 mm 3 mps 748 mmHg 86%
01:00 +5°C° 1.5 mm 3 mps 748 mmHg 89%
02:00 +5°C° 1.5 mm 3 mps 748 mmHg 93%
03:00 +4°C° 1.9 mm 3 mps 748 mmHg 94%
04:00 +4°C° 1.9 mm 4 mps 749 mmHg 94%
05:00 +3°C° 1.9 mm 4 mps 749 mmHg 94%
06:00 +3°C° 0.1 mm 4 mps 749 mmHg 94%
07:00 +3°C° 0.1 mm 4 mps 749 mmHg 93%
08:00 +4°C° 0.1 mm 4 mps 749 mmHg 92%
09:00 +4°C° 0.1 mm 4 mps 750 mmHg 92%
10:00 +4°C° 0.1 mm 3 mps 750 mmHg 91%
11:00 +5°C° 0.1 mm 3 mps 750 mmHg 91%
12:00 +5°C° 0.4 mm 3 mps 750 mmHg 91%
13:00 +5°C° 0.4 mm 3 mps 750 mmHg 92%
14:00 +5°C° 0.4 mm 3 mps 750 mmHg 92%
15:00 +5°C° 0.1 mm 3 mps 750 mmHg 92%
16:00 +5°C° 0.1 mm 4 mps 750 mmHg 92%
17:00 +5°C° 0.1 mm 4 mps 750 mmHg 92%
18:00 +5°C° 0.1 mm 3 mps 750 mmHg 93%
19:00 +5°C° 0.1 mm 3 mps 750 mmHg 94%
20:00 +6°C° 0.1 mm 2 mps 750 mmHg 96%
21:00 +6°C° 0 mm 2 mps 750 mmHg 96%
22:00 +7°C° 0 mm 1 mps 750 mmHg 97%
23:00 +7°C° 0 mm 1 mps 750 mmHg 97%
Show more